Showing default

GHGSAT-C6, 56204

Orbit data source: Space-Track

GHGSAT-C6, 56204 is a payload satellite owned by GHG (CA) in SSO that was launched on Sat, 15 Apr 2023 UTC via an FALCON 9 launch vehicle from the Air Force Western Test Range (AFWTR). Payload-class satellites include a variety of spacecraft equipped with specific instruments for various scientific and technological missions. These include communications satellites like Starlink; space stations such as the ISS; scientific satellites like the Hubble; Earth observation satellites from companies like Planet Labs, Umbra, and HawkEye 360; GPS; miniature CubeSats for education and research; and military/defense satellites.

Not visible in the next 10 days
Identifier
56204, 2023-054AC
Orbit
SSO
Last TLE update
7 hours ago
Origin
Manufacturer
UTIAS-SFL
Mission
Operational Commercial Science
Bus & Motor
NEMO-V1, Unknown motor
Mass
15 kg wet, 15 kg dry
Launch date (UTC)
2023-04-15 (2 years ago)
Launch vehicle
FALCON 9
Launch site
Air Force Western Test Range (AFWTR)
Object type
Payload
Rocket body
Debris
Shape & HBR
Box, 0.4 m
Radar Cross Section
0.100 m², Medium (>0.1 m² and < 1m²)

Expand to show TLE details & history

TLE from 7 hours ago
0 GHGSAT-C6
1 56204U 23054AC  25128.97373059  .00011739  00000-0  28640-3 0  9996
2 56204  97.3361  29.8780 0011543  76.2669 283.9861 15.40959854115983
Epoch: 2025-05-08T23:22Z
Definitive object data (Epoch: 2025-05-08T23:22:10.322Z)
Latitude
-0.00014°
Longitude
172.29847°
Altitude
444.501 km
Speed
7.646 km/s
True Right ascension
01h 59m 30s
True Declination
0° 00' 01"
Sunlit
Object was in daylight at TLE epoch
Visualization TLE readout
Latitude
37.07838°
Longitude
-1.86288°
Altitude
445.423 km
Speed
7.65 km/s
Apparent Right ascension
14h 30m 54s
Apparent Declination
2° 17' 14"
Sunlit
Object is in full shadow
Visualization observer readout
Local Sidereal Time
14:21:57
Azimuth
176.343° S
Elevation
52.316°
Doppler factor
1
Orbital elements
Apogee altitude
448.081 km
Perigee altitude
432.34 km
Semi-major axis
6,818.347 km
Eccentricity
0.0011543
Inclination
97.3361°
RAAN
29.878°
Arg. of periapsis
76.2669°
True anomaly
283.8577°
Mean anomaly
283.9861°
Eccentric anomaly
283.92191°
Mean motion
3.855 °/min
BSTAR
0.0002864
Orbital period
93.39 mins
Loading maneuver chart data...
Loading SW <> Apogee altitude chart data...
Loading historical data...
Loading historical data...
Loading historical data...
Loading historical data...
Loading historical data...
Loading historical data...
Loading historical data...

GHGSAT-C6 Visibility forecast

Observer location: undefined°, undefined°

GHGSAT-C6 is not visible in the next 10 days
Span
Click to sort rows by Start time (UTC) header in descending order
Start Az.
Max El. time (UTC)
Max El. Az.
Max El.
End time (UTC)
End Az.
|